GSAT0205 (GALILEO 9) (40889 NORAD) Tracking and Keplerian Element Data

This shows tracking and keplerian element data for the satellite.

Feedback or suggestion? Click here.




ElementValue
Catalog40889
NameGSAT0205 (GALILEO 9)
Epoch Orbit3741
Epoch Day257.94441775
Epoch Year2021
RAAN269.5703
Inclination55.8134
Eccentricity0.000382
Argument of Perigee338.9434
Mean Anonmoly21.0743
Mean Motion1.7047508
Decay Rate3.6E-07
L11 40889U 15045A 21257.94441775 .00000036 00000-0 00000+0 0 9990
L22 40889 55.8134 269.5703 0003820 338.9434 21.0743 1.70475080 37410

Live tracking and technical data element details for GSAT0205 (GALILEO 9) (NORAD 40889). GSAT0205 (GALILEO 9) can be tracked NOW for your location showing map with azimuth and elevation plus other details from your city location.

Track the satellite on the map from your city or location and see movement details for azimuth, elevation, latitude, longitude, range, height, and movement on the map or in text.







IsCatalogInMostPopularTable: catalog: 40889, numindb: 686
Update: records affected: 1



GetName: 40889 GSAT0205 (GALILEO 9)

Hit Count: updated at: Sat, 18 Sep 2021 09:52:40 GMT